Location: Lake Mineral Wells State Park
(32.8157°N, 98.0290°W)
Time: 03:24:12
(UTC-06:00)

Envisat - Pass Details

Date: 01 November 2019
Orbit: 764 x 766 km, 98.1° (Epoch: 12 November)

Event Time Altitude Azimuth Distance (km) Brightness Sun altitude
Rises 20:00:38 0° 178° (S) 3,215 6.3 -17.2°
Reaches altitude 10° 20:02:58 10° 182° (S) 2,292 5.6 -17.6°
Maximum altitude 20:07:55 54° 260° (W) 922 3.8 -18.7°
Drops below altitude 10° 20:12:53 10° 338° (NNW) 2,305 5.7 -19.7°
Sets 20:15:15 0° 342° (NNW) 3,234 6.4 -20.2°
